Theta_e
336 336 335 334 333 335 335 335 334 334 333 333 335 335 335 334 335 334 329 328 330 331 328 322 321 321 322 323 318 311 309 309 308 310 313 316 320 321 320 321 322 321 320 318 319 318 317 324 330 330 327 323 321 322 322 324 325 327 326 326 324 322 322 320 315 310 308 309 310 312 312 314 315 317 318 319 319 318 317 316 316 315 316 325 333
337 336 336 335 334 334 335 335 335 334 333 333 335 335 335 334 335 333 328 328 330 330 328 322 320 321 321 322 317 311 308 309 308 310 313 316 319 321 320 321 323 324 322 321 322 322 320 325 329 328 323 318 318 320 321 322 322 323 324 323 319 318 319 316 311 309 309 308 309 308 309 310 312 314 314 315 314 314 312 312 311 311 315 321 329
335 337 337 335 335 334 334 334 335 335 333 333 334 334 334 333 334 332 327 327 328 328 324 320 318 319 319 319 315 310 309 308 308 310 312 314 317 319 321 321 324 326 326 325 326 326 324 325 325 322 318 316 315 315 314 314 315 317 319 317 315 317 319 315 311 309 308 309 310 309 311 310 309 310 309 310 309 309 308 309 308 310 313 316 321
334 335 336 335 335 335 334 334 334 335 334 334 333 332 332 333 333 330 326 324 326 326 321 318 317 315 314 313 311 309 309 308 308 309 311 312 313 315 317 320 324 326 327 327 328 328 325 322 319 315 312 311 309 308 309 309 310 312 315 314 313 316 319 317 312 309 309 314 314 313 318 315 313 313 310 308 308 309 308 309 309 311 312 311 314
334 333 335 335 335 335 335 334 333 333 334 334 333 333 332 333 332 328 323 323 326 325 320 319 317 313 311 311 311 310 309 308 308 308 309 311 312 313 313 316 321 324 327 327 327 328 324 318 314 311 308 307 307 308 308 308 308 309 311 311 312 314 317 315 310 309 312 319 320 319 323 322 320 321 318 313 309 309 309 309 309 310 310 312 315
335 334 334 335 334 334 335 334 332 332 332 331 331 331 331 332 330 325 322 323 326 324 319 320 320 316 312 311 311 310 309 307 308 308 309 310 311 312 313 317 319 321 326 327 326 327 323 314 309 308 307 308 308 308 308 308 309 309 310 310 310 312 312 311 312 316 319 323 323 322 325 324 323 324 322 319 311 309 311 311 311 312 313 318 320
335 335 336 336 335 334 334 333 333 333 331 330 330 329 328 329 328 323 322 323 325 323 320 321 320 319 315 312 312 311 310 307 308 308 308 309 309 312 317 321 320 323 327 328 328 328 322 311 306 308 308 308 308 308 308 308 309 309 309 309 309 309 310 312 319 323 323 325 325 324 324 321 321 322 322 320 315 312 311 311 312 313 317 320 319
336 335 336 337 337 335 333 333 334 334 334 333 332 331 328 327 326 323 321 323 325 322 321 321 321 321 319 316 314 312 310 308 308 308 308 308 308 314 320 321 322 327 328 327 327 324 318 312 308 307 307 307 308 308 309 309 309 309 309 308 308 309 312 317 323 324 323 325 325 324 324 321 321 323 322 319 317 316 313 313 314 314 316 317 317
336 336 336 336 336 335 333 334 335 335 334 334 334 333 330 326 324 322 321 324 324 322 321 321 321 321 321 320 317 314 311 308 307 307 308 307 309 315 321 322 326 329 328 327 325 319 318 317 313 311 310 307 308 308 309 309 309 309 308 308 309 313 319 323 324 324 322 324 325 324 324 322 322 324 323 319 316 316 315 316 316 316 315 316 317
336 338 338 337 336 335 334 333 335 335 334 334 334 332 329 324 321 321 322 325 325 322 321 320 321 321 320 320 319 316 312 309 306 306 307 308 312 317 320 323 328 329 327 327 325 322 323 322 318 316 311 307 308 308 309 309 308 309 308 309 311 317 323 325 325 325 324 324 324 324 324 323 323 323 324 321 318 317 317 318 318 319 319 319 319
337 338 338 338 336 335 334 334 334 335 335 334 334 331 327 323 320 321 323 326 327 323 321 320 321 321 320 319 318 317 314 310 306 305 305 309 315 319 321 324 327 327 326 326 326 325 325 322 318 313 308 307 308 308 308 309 308 308 309 310 313 319 324 325 325 325 325 325 325 325 325 324 325 325 325 324 322 321 321 321 321 322 323 322 320
337 338 338 338 336 335 335 335 335 335 335 335 335 333 328 323 321 322 324 327 329 325 322 322 321 321 321 319 317 317 316 312 307 305 304 307 314 319 322 325 326 324 324 325 325 325 325 322 315 309 306 308 307 308 308 308 309 308 309 310 314 320 324 326 325 326 326 326 326 325 325 325 326 326 326 326 325 324 323 323 324 324 323 323 321
337 337 338 338 335 335 335 335 336 336 335 336 336 335 331 326 322 323 325 328 330 327 324 323 322 321 320 319 318 318 317 314 309 306 304 304 309 316 320 324 325 324 324 325 324 323 322 316 309 306 307 307 307 308 307 307 308 308 309 310 314 320 324 325 325 326 327 326 326 325 325 326 325 325 326 325 325 324 324 324 324 323 322 322 321
337 337 338 338 335 334 335 336 336 336 336 336 336 335 333 329 325 325 326 328 330 328 325 325 323 321 320 319 318 318 318 316 312 308 305 303 304 309 315 319 320 321 321 322 322 320 315 308 306 306 306 306 306 307 306 306 307 306 307 309 314 320 323 324 325 326 327 326 326 326 326 325 325 325 325 325 324 323 323 324 324 322 320 320 320
338 338 337 338 336 335 336 336 336 336 336 336 336 336 335 332 329 327 327 327 330 330 327 326 325 323 321 319 319 320 320 318 316 312 307 305 303 304 308 309 310 311 312 313 314 312 308 306 306 306 306 306 305 305 305 305 305 305 305 306 312 320 323 323 323 325 326 326 326 326 326 326 326 325 325 324 323 323 323 323 323 322 319 318 318
338 338 337 338 337 336 336 337 336 336 336 336 336 336 336 334 332 330 328 327 329 331 328 327 327 325 323 320 319 320 321 320 318 316 312 308 305 304 303 304 304 305 305 306 306 306 306 305 305 305 305 305 304 304 304 304 304 304 304 304 308 315 319 320 321 322 324 325 325 325 325 326 326 325 325 324 323 323 323 322 321 320 319 317 317
338 337 337 337 337 336 337 337 337 337 337 337 337 336 336 335 334 332 330 328 328 330 328 327 328 327 325 322 320 320 321 321 320 318 317 313 310 306 304 303 303 304 304 304 305 304 305 304 304 304 304 304 304 305 306 306 306 306 305 305 306 308 310 311 313 316 317 318 322 324 325 325 324 322 323 322 321 322 322 321 318 318 317 314 314
338 337 337 337 337 337 338 337 337 338 337 337 337 337 336 336 335 334 332 330 329 329 327 327 328 327 326 323 321 321 321 322 321 319 319 318 315 312 309 306 304 304 304 304 304 304 303 304 304 304 304 306 307 309 310 310 309 308 306 306 307 307 308 310 312 314 314 314 317 318 319 321 319 318 318 317 317 319 320 318 316 316 315 311 312
337 337 337 337 337 337 338 338 337 338 337 337 337 337 337 336 336 335 334 332 330 329 327 326 327 327 326 324 322 321 321 322 322 321 319 319 319 317 314 312 310 309 307 306 305 305 305 305 306 307 308 310 312 313 313 312 310 309 307 307 309 312 314 318 319 319 319 319 318 317 315 315 313 313 313 313 312 313 314 313 311 313 315 312 309
337 336 337 337 337 337 337 337 337 337 337 338 337 337 337 336 336 336 335 333 332 330 328 327 326 327 327 326 324 321 321 322 322 322 321 320 320 319 318 317 316 315 313 311 310 310 310 310 310 311 313 314 315 315 315 314 313 311 309 310 314 316 318 320 320 321 321 320 321 321 319 318 317 316 316 316 313 312 312 313 313 313 317 314 305
337 336 337 337 337 337 337 337 337 336 337 338 338 337 337 336 336 336 335 334 333 332 330 328 327 327 327 327 325 323 321 322 323 323 322 321 321 321 320 320 319 318 317 316 315 314 314 314 314 315 316 316 317 317 317 316 315 314 313 314 317 318 319 320 321 321 320 319 320 321 321 320 319 318 318 318 318 317 316 317 315 310 312 310 306
337 337 337 337 337 335 336 336 335 336 336 337 337 337 336 336 337 336 335 334 334 333 331 330 328 327 328 328 327 326 322 322 323 323 322 322 321 321 321 321 321 320 320 319 317 317 317 317 317 317 317 318 318 318 318 317 316 316 316 317 318 319 319 320 321 321 320 319 320 321 321 319 318 317 317 318 318 318 317 315 310 306 309 310 310
333 335 336 336 336 334 335 336 335 335 335 336 336 336 336 336 336 336 335 335 334 333 332 331 330 328 328 329 329 328 325 322 323 323 323 323 322 321 321 322 322 321 321 320 320 319 318 318 318 318 318 318 319 319 318 318 317 317 317 317 319 319 319 320 320 320 320 319 320 321 320 319 319 318 317 318 317 316 315 312 307 307 311 310 308
329 332 334 333 333 332 333 334 334 335 335 335 335 335 335 335 335 335 336 335 334 333 333 332 332 330 329 330 330 330 327 323 323 324 324 323 323 322 321 322 322 322 322 321 321 320 319 319 319 319 319 319 319 319 319 318 318 318 318 318 318 319 319 320 319 319 319 319 320 319 318 319 320 318 318 318 316 313 311 311 309 307 308 306 305
329 328 328 329 329 329 331 331 331 332 332 333 335 335 334 334 334 334 335 335 334 334 333 333 332 331 331 331 330 330 328 325 323 324 324 324 324 323 322 321 322 322 322 322 321 320 320 319 319 319 320 320 320 319 319 319 319 318 319 319 319 319 319 319 319 318 317 318 318 317 318 319 320 318 317 316 315 313 311 311 311 307 304 304 306
326 322 321 324 325 328 330 330 331 331 330 331 333 334 334 334 333 334 335 334 334 334 334 333 333 332 332 331 331 330 329 327 325 324 324 324 324 324 323 322 322 322 322 322 322 321 320 320 320 320 320 320 320 320 319 319 319 319 319 319 319 318 318 318 318 317 317 317 315 316 318 317 318 317 316 315 315 314 312 310 307 306 306 305 306
320 319 319 320 321 326 327 329 331 331 332 332 332 333 333 333 333 333 334 333 333 333 334 333 333 332 332 332 331 330 330 329 327 325 324 325 325 325 324 323 322 322 322 322 322 321 320 320 320 320 320 320 320 319 319 318 318 318 318 318 317 316 315 316 316 315 315 315 313 313 315 315 316 315 315 314 312 311 310 310 309 310 310 307 305
317 318 319 318 317 324 328 328 328 330 331 331 331 331 332 333 333 333 333 333 332 332 333 333 333 333 332 332 331 331 331 330 328 326 325 325 325 325 325 324 322 322 323 322 322 321 321 320 320 321 321 320 320 319 318 317 317 318 317 315 313 311 311 312 311 311 313 313 311 310 310 312 314 314 314 313 312 311 310 311 312 311 309 306 304
316 315 316 317 316 320 326 325 325 327 324 325 327 328 329 332 333 333 333 333 332 332 332 332 333 333 332 332 331 331 331 331 330 328 326 325 325 324 325 325 323 322 322 322 322 321 321 321 321 321 321 320 320 319 318 317 316 316 313 310 308 307 307 308 307 308 310 309 308 307 306 307 310 312 312 312 313 312 311 310 309 308 307 307 304
315 315 315 317 316 316 318 318 321 322 321 326 328 327 328 328 330 332 333 333 332 331 332 332 332 332 332 332 331 330 330 330 331 330 327 326 325 325 325 326 324 322 323 322 322 322 321 321 321 321 320 320 320 319 318 317 316 314 310 307 305 305 305 305 305 306 306 306 305 304 303 303 304 305 306 308 309 310 310 309 308 308 306 306 304
315 315 314 315 315 315 314 315 318 319 324 329 328 328 329 325 323 328 332 333 333 331 331 331 330 331 331 331 331 330 330 329 330 331 328 326 326 325 325 326 325 323 323 323 323 322 322 322 321 321 321 320 319 318 318 317 316 312 309 306 304 304 304 304 304 304 304 303 302 302 301 302 301 301 300 301 302 304 304 302 305 306 304 305 304
315 315 315 314 314 315 314 315 316 318 322 325 325 326 329 326 320 324 331 333 334 332 331 329 329 332 331 330 330 329 329 328 329 331 329 327 326 326 326 326 325 324 324 323 323 323 323 322 322 321 321 320 319 319 318 317 316 312 309 307 304 303 304 303 303 303 303 302 302 302 302 301 300 299 298 298 298 298 297 296 299 299 300 303 303
315 315 314 314 315 314 314 314 314 316 317 319 321 321 325 324 319 327 335 335 336 335 333 329 328 332 332 331 330 329 328 327 329 331 330 328 327 327 327 326 326 325 325 324 323 323 323 323 322 321 321 320 319 319 318 318 317 311 309 308 304 303 304 303 303 303 302 302 302 302 301 301 299 298 297 297 297 296 296 296 296 295 296 298 301
315 315 315 314 314 314 314 313 313 314 314 315 316 316 319 319 318 329 337 336 335 335 332 328 327 331 332 332 332 329 329 327 327 330 330 329 328 327 327 327 327 326 325 325 324 323 323 322 322 322 322 320 319 319 318 318 317 311 308 308 304 303 304 303 303 303 302 302 302 302 301 300 298 297 297 296 296 296 296 295 295 295 294 295 298
315 315 315 314 314 314 313 314 313 313 313 313 314 314 315 317 317 325 334 335 334 332 330 326 328 330 328 329 333 331 330 328 327 328 329 329 328 327 327 328 328 326 326 325 324 323 322 322 322 323 323 321 320 319 318 318 317 312 307 306 304 303 304 303 303 303 303 302 302 301 300 299 298 297 296 296 296 295 295 295 295 295 294 294 295
315 315 315 314 314 314 313 313 313 313 313 313 314 314 314 316 316 320 327 331 332 333 330 325 326 329 324 325 332 331 329 329 328 328 329 329 327 327 327 329 329 327 326 325 324 323 323 322 322 323 323 322 321 320 319 318 317 313 307 304 303 303 303 303 303 303 303 302 302 301 299 299 297 296 296 295 295 295 295 295 294 294 294 294 293
315 315 315 315 314 314 314 314 313 313 314 314 314 314 314 314 316 319 319 320 324 327 325 322 327 330 326 325 329 329 329 330 331 330 329 328 326 326 327 329 329 328 326 325 325 324 323 323 322 323 323 323 322 320 320 319 316 311 306 304 303 304 303 303 303 303 303 302 302 301 299 298 297 296 296 295 295 295 295 294 294 294 293 293 293
315 315 315 315 314 314 314 314 314 314 314 314 314 314 314 313 315 317 316 315 317 318 316 317 323 326 325 328 330 327 329 331 330 328 330 330 328 327 327 329 329 328 327 326 326 325 324 324 324 324 323 323 322 321 320 319 316 309 305 304 303 304 303 303 303 303 303 302 302 300 299 298 297 296 295 295 295 294 294 294 294 294 293 293 292
316 316 315 315 314 314 314 314 313 314 314 314 314 314 314 314 314 314 314 313 314 314 313 313 316 319 325 332 331 327 327 329 326 325 329 331 330 329 328 329 329 328 327 327 326 325 325 324 325 324 323 323 322 321 320 319 317 311 306 305 303 304 303 303 303 303 303 303 301 300 299 298 297 296 295 295 294 294 294 294 294 293 293 292 292
316 316 315 315 315 314 314 314 313 314 314 314 313 313 313 313 313 313 313 312 312 313 313 312 312 316 327 334 331 327 325 326 324 323 328 330 328 328 328 328 329 328 328 327 327 326 325 324 324 324 323 323 322 320 319 319 317 313 309 306 304 304 304 303 303 303 303 303 302 300 299 298 296 295 295 294 294 294 294 293 293 293 292 292 291
317 316 316 315 315 315 314 314 314 314 314 314 314 314 313 313 313 313 313 313 313 313 313 313 311 316 328 333 331 328 324 324 324 325 329 329 325 324 326 327 328 329 328 327 327 327 325 324 324 323 322 322 322 320 319 318 317 313 310 307 304 304 304 303 303 303 303 302 302 300 299 298 296 295 294 294 293 293 293 293 292 292 292 291 291
318 317 317 316 315 315 315 315 314 314 313 313 313 314 313 313 313 313 313 313 313 313 312 313 311 315 325 331 332 329 324 324 326 325 326 325 323 324 325 326 328 328 328 327 327 327 325 324 324 323 321 321 321 319 319 318 316 314 310 305 304 304 304 304 304 303 303 302 301 300 299 297 296 295 294 293 293 293 293 292 292 292 291 291 291
318 318 317 316 316 315 315 315 315 314 314 313 314 314 313 313 313 312 312 312 313 313 313 312 312 314 322 327 329 326 323 325 325 323 324 324 325 325 324 326 327 327 328 328 326 326 326 324 323 322 321 321 319 319 319 317 316 314 308 304 304 304 303 303 303 303 303 302 300 299 297 297 295 294 293 293 293 292 292 292 292 291 291 291 291
318 318 318 317 316 316 316 315 315 315 314 314 314 314 313 313 312 312 311 312 313 313 313 312 312 313 319 323 323 323 324 327 324 322 325 328 327 325 325 326 328 328 328 328 327 326 325 324 323 322 322 321 320 319 318 316 315 313 306 303 303 302 302 303 303 302 302 301 299 298 297 296 295 293 293 292 292 292 292 292 291 291 291 291 291
317 317 318 318 317 317 316 316 315 315 315 315 314 314 313 313 312 312 311 312 313 313 312 312 312 313 315 319 323 325 327 327 325 321 324 328 328 327 326 326 328 328 328 327 327 325 325 325 324 323 322 322 321 320 318 316 315 312 305 303 303 301 302 302 302 300 300 299 298 297 296 295 294 293 293 292 292 291 291 291 291 291 290 291 290
317 317 317 317 317 317 316 316 315 315 315 315 315 314 313 313 313 312 312 312 312 313 313 313 313 314 314 317 323 327 328 326 323 321 324 328 329 328 326 326 326 326 326 326 325 324 324 324 324 323 322 322 321 320 319 317 316 313 306 303 303 303 303 302 300 299 298 297 297 297 296 294 294 293 292 292 291 291 291 291 290 290 290 290 290
317 317 317 316 316 316 316 316 315 315 315 315 315 314 313 313 312 312 312 312 312 312 313 313 313 313 314 315 317 320 323 323 322 324 327 329 328 326 324 324 324 323 323 323 323 322 322 323 325 323 322 322 320 320 320 318 317 314 308 304 304 303 304 303 301 299 297 296 297 296 295 294 294 293 292 292 291 291 291 290 290 290 290 289 290
317 317 317 316 316 315 315 315 315 315 315 314 314 314 313 313 313 313 312 311 311 312 312 313 313 313 315 316 315 316 319 322 325 328 328 328 326 324 322 322 322 321 320 320 321 320 320 323 325 323 322 322 320 319 320 318 317 316 310 305 304 303 302 301 300 300 298 297 297 296 295 295 294 293 292 291 291 291 290 290 290 289 289 289 289
317 317 317 317 316 315 315 315 314 314 314 314 314 313 313 312 312 312 312 311 311 311 311 312 312 313 317 319 318 318 322 325 328 329 327 327 325 323 322 321 320 319 318 318 319 319 320 323 323 321 322 322 320 319 319 318 317 317 312 306 304 303 301 300 299 299 298 297 296 296 295 295 293 293 293 292 291 291 290 290 290 289 289 289 289
317 318 317 317 317 316 315 314 314 313 313 313 313 313 312 312 312 312 311 311 310 310 311 312 312 314 319 322 320 320 324 327 328 328 327 326 324 323 323 321 320 320 319 318 318 319 321 323 322 320 321 321 320 320 319 318 317 317 314 308 304 303 302 301 300 298 298 297 296 296 295 294 293 293 292 292 291 291 290 290 290 289 289 289 289
318 318 318 318 317 317 316 315 313 313 313 313 313 312 312 312 311 311 311 310 310 310 311 312 312 315 319 323 323 321 324 327 327 327 326 324 323 323 323 322 321 320 319 318 318 319 321 322 322 321 321 321 321 320 319 318 317 317 315 310 305 304 302 301 300 299 298 297 295 295 295 294 293 292 292 291 291 291 290 290 290 289 289 289 289
Wind_Speed
13 14 13 13 13 13 13 12 12 12 12 12 11 10 10 10 11 10 8 8 8 9 10 10 10 9 9 9 10 9 8 8 8 9 9 9 11 11 11 11 11 11 11 12 13 12 13 15 15 14 13 14 14 14 15 14 14 14 14 14 14 14 14 15 15 16 17 18 19 17 16 15 13 12 11 10 10 10 10 11 11 13 17 16 16
14 14 13 13 12 13 13 13 12 13 13 12 11 11 10 10 10 9 7 7 8 9 10 10 10 10 10 9 10 9 9 9 9 10 9 10 12 12 12 12 12 12 13 13 13 13 15 16 14 13 13 14 14 15 15 15 14 14 13 13 13 14 15 16 16 16 17 18 19 19 19 18 18 16 14 13 13 12 12 13 14 16 16 14 14
15 14 13 13 12 13 14 13 12 13 14 13 11 11 11 10 9 8 6 7 9 10 10 10 10 10 10 10 10 10 10 10 10 10 10 10 12 13 13 13 13 13 13 13 14 13 15 15 14 13 13 14 14 15 14 14 14 14 14 13 14 15 15 15 15 16 18 18 19 20 20 20 20 19 18 16 16 15 15 16 17 19 17 13 13
16 14 13 13 12 13 14 13 12 11 13 13 12 11 11 10 8 7 7 8 9 10 10 11 12 12 11 11 11 10 10 10 10 11 11 11 13 13 14 14 13 14 14 14 15 14 14 14 14 13 14 14 14 15 15 15 15 15 14 14 14 15 15 14 14 17 20 21 20 20 19 20 21 20 19 18 17 16 16 17 18 19 17 15 15
15 14 12 12 11 11 12 13 13 11 11 11 12 12 11 10 9 8 7 8 10 10 11 12 12 13 13 12 12 11 11 11 11 11 12 12 14 14 13 13 13 14 14 15 15 14 14 14 14 14 14 15 16 16 17 17 16 16 15 15 15 15 14 14 16 19 21 22 20 20 19 19 20 21 20 19 18 17 17 18 18 17 17 18 19
14 14 13 11 11 11 11 12 13 12 11 11 11 11 11 9 8 8 7 8 10 11 11 12 13 13 13 12 12 11 11 11 11 11 12 12 13 14 14 13 13 14 14 15 15 14 14 14 14 15 15 16 17 18 18 18 18 18 17 17 17 16 16 17 20 20 20 22 20 19 18 18 19 20 21 20 19 19 19 19 19 19 19 20 20
13 14 13 12 12 11 11 12 12 13 12 11 11 10 10 8 8 8 8 8 9 11 11 12 13 13 13 12 12 11 11 11 11 11 12 12 13 14 13 14 14 14 15 15 15 14 14 14 15 15 16 16 17 18 19 19 19 19 19 19 19 19 18 19 22 19 19 21 18 18 17 19 20 20 20 20 21 21 21 21 21 21 21 20 19
13 13 13 13 12 12 12 12 12 12 12 11 10 9 8 8 8 9 7 7 10 11 11 12 12 13 13 12 11 11 10 10 11 11 12 12 12 13 13 14 15 15 14 15 14 14 15 15 15 16 16 16 17 18 19 20 20 20 20 20 20 20 19 19 19 17 20 20 18 19 17 19 21 20 20 20 21 20 20 21 21 21 21 20 20
13 12 11 12 12 13 12 12 12 11 11 10 9 7 7 8 8 8 7 7 10 11 11 11 11 12 12 12 11 10 10 10 10 11 11 12 12 13 13 14 15 14 14 15 14 14 16 15 15 15 16 17 18 19 20 21 21 20 19 19 19 20 21 21 20 17 21 20 19 20 16 18 20 19 20 20 21 20 20 20 21 21 21 21 21
14 12 11 11 12 12 12 12 11 11 11 10 9 7 7 8 9 8 7 8 10 11 10 10 10 11 11 11 11 10 10 10 10 10 11 11 12 13 14 15 14 15 15 15 15 15 15 15 15 15 16 18 18 19 20 21 21 20 18 17 17 20 23 23 22 19 20 20 20 21 19 19 20 20 20 21 23 23 22 21 22 22 22 23 23
14 13 11 11 12 12 12 12 11 11 11 10 9 7 7 10 10 8 8 9 9 10 10 9 9 9 10 10 10 10 10 10 10 9 9 10 12 13 14 15 15 14 15 15 15 15 14 14 15 15 17 18 19 19 20 20 20 19 17 16 17 20 23 21 19 19 20 20 20 21 20 20 20 21 20 22 24 25 25 24 24 24 24 24 25
15 13 11 10 12 13 12 12 11 11 11 10 9 7 8 10 10 8 8 9 9 9 10 8 8 8 8 9 9 9 10 10 9 9 8 9 11 13 14 14 14 14 14 15 14 14 14 14 15 16 18 18 18 19 20 20 20 19 16 16 18 21 23 19 18 20 20 19 20 20 21 20 21 21 20 21 23 23 25 25 25 24 23 23 24
15 14 12 11 13 13 13 13 11 11 10 10 9 7 8 9 10 9 9 10 9 8 9 8 8 7 8 8 9 9 9 10 9 9 8 8 9 11 14 14 14 14 14 15 14 14 14 15 16 17 18 18 18 19 19 20 20 19 17 17 19 22 22 20 21 22 21 21 22 22 22 22 21 20 19 19 20 21 22 23 22 22 21 21 21
14 14 12 12 14 14 14 13 12 11 11 10 10 8 8 9 9 9 9 10 9 8 8 8 7 7 7 8 9 9 9 10 9 9 8 8 8 9 11 12 13 13 13 14 14 14 14 16 17 17 17 18 18 18 19 19 19 18 16 16 19 21 20 19 21 23 22 23 22 21 22 21 20 19 19 19 19 19 19 20 20 19 18 17 18
14 14 13 13 14 15 15 15 14 13 12 11 10 9 8 9 9 9 9 10 9 8 7 7 6 6 7 8 8 9 9 9 9 9 8 8 7 8 9 9 11 12 12 13 13 13 15 16 17 17 17 17 18 18 19 19 19 18 16 16 17 19 17 15 18 20 21 21 22 21 21 20 19 18 19 18 18 18 18 17 17 17 16 16 17
14 15 14 14 15 16 16 15 15 13 13 12 11 10 10 9 9 10 10 10 10 8 7 7 6 5 6 7 7 8 8 8 8 8 8 8 8 8 8 9 10 11 11 12 12 12 13 14 15 16 16 16 17 18 18 18 18 17 17 16 16 18 16 14 16 17 16 17 19 20 20 19 18 17 18 18 17 17 16 15 15 15 15 15 14
14 16 15 14 15 15 16 15 14 13 13 13 12 11 10 10 10 10 10 10 10 9 7 7 6 4 5 6 6 7 7 8 8 8 7 8 8 8 8 9 9 10 11 11 12 12 12 13 14 15 15 16 17 17 18 18 18 17 17 16 17 18 18 18 19 18 15 16 18 19 19 17 16 15 15 16 15 15 15 14 13 12 11 12 13
15 16 16 15 15 15 16 15 15 14 13 13 12 12 12 11 11 11 10 9 10 9 7 7 5 3 3 4 5 5 6 6 7 8 7 7 7 8 9 9 9 10 10 11 11 12 12 12 13 14 15 16 17 17 18 18 17 17 16 16 17 19 21 21 20 19 17 17 16 16 15 13 12 11 10 11 12 13 13 12 12 13 12 12 14
17 17 16 16 16 16 16 15 15 15 14 14 13 13 13 12 12 11 11 10 9 9 8 7 5 3 2 2 3 4 5 5 6 7 7 7 7 7 8 9 9 10 10 11 11 12 12 12 13 14 14 15 16 17 17 17 16 16 15 16 17 18 20 20 17 17 18 16 15 16 14 10 10 9 9 9 9 9 8 8 9 13 16 14 16
19 19 17 17 17 16 16 15 15 15 15 14 14 14 14 13 12 12 11 11 10 9 8 8 6 4 3 2 2 3 4 5 5 6 7 7 6 7 7 8 9 9 10 10 11 11 12 12 13 13 13 14 16 17 17 16 15 15 14 14 14 15 16 16 17 19 19 18 17 18 16 14 13 13 14 14 12 11 10 10 12 14 15 14 15
20 20 18 18 19 18 17 16 15 15 15 15 15 15 14 13 13 13 13 12 11 11 10 9 8 6 5 3 2 2 3 4 5 5 6 7 7 7 7 7 8 8 9 9 10 10 11 12 12 12 13 14 15 16 16 16 15 14 12 11 12 14 16 18 20 21 20 19 19 18 17 16 16 16 18 19 19 18 17 17 16 14 12 10 13
20 21 21 20 21 22 19 18 17 16 16 15 15 15 14 14 14 15 14 13 13 12 11 11 10 9 7 5 4 3 4 4 5 5 6 6 7 7 7 7 7 7 8 9 10 10 11 11 12 12 13 13 14 15 15 15 14 12 11 10 12 15 18 20 20 20 19 19 18 19 17 16 16 17 19 20 20 20 18 17 15 14 12 12 16
21 21 22 23 24 25 22 19 19 18 18 16 15 15 14 14 15 15 15 14 14 14 13 13 12 11 9 7 5 5 5 6 6 5 5 5 7 7 6 7 6 7 7 9 10 10 11 11 12 12 12 12 12 13 14 14 13 11 10 10 12 15 17 18 19 19 19 18 18 18 17 17 17 17 18 18 17 17 16 14 12 14 15 15 16
19 20 24 26 25 27 26 22 21 20 20 18 16 15 14 15 16 16 15 15 16 16 15 14 13 12 11 9 7 7 7 6 7 6 6 6 6 7 7 7 7 7 7 9 10 10 11 11 12 11 11 11 11 13 13 13 12 10 9 10 11 13 15 16 18 19 19 20 18 16 16 18 17 16 16 15 14 13 11 12 13 14 14 13 13
16 20 25 27 26 27 28 26 25 23 22 20 18 17 16 15 16 17 17 16 17 17 16 16 14 13 13 11 10 9 8 7 7 8 8 8 7 7 8 8 8 9 9 9 10 11 11 11 12 11 11 10 10 12 11 11 10 8 9 9 9 10 12 15 17 18 19 20 20 17 16 17 16 14 14 13 13 13 13 14 15 14 12 12 13
18 20 23 26 27 27 29 28 27 26 25 23 21 19 18 17 18 18 17 17 17 17 18 17 16 15 14 13 12 11 10 8 8 10 10 9 8 8 8 8 9 10 10 10 10 11 11 11 11 11 10 9 9 10 9 9 8 7 7 8 8 8 10 13 15 16 18 19 20 20 18 15 15 14 13 12 12 13 13 12 12 13 13 12 12
22 21 22 24 26 28 29 29 29 28 27 27 25 23 21 18 19 19 17 18 18 18 19 19 18 17 16 15 14 14 12 11 10 11 12 11 11 10 9 9 9 10 11 11 11 12 11 11 10 10 9 9 8 8 8 7 6 6 6 6 7 8 10 12 14 16 16 17 18 19 18 16 14 13 13 12 11 12 11 11 12 14 13 12 12
25 23 22 22 25 27 26 27 30 30 29 28 27 26 25 21 19 19 19 19 19 19 20 20 20 19 18 17 16 15 14 13 12 11 12 12 12 11 11 10 10 11 12 12 12 13 12 11 10 9 9 8 7 6 6 6 6 6 5 6 7 9 11 13 15 17 16 16 15 14 15 17 16 14 14 12 12 13 11 13 14 14 12 11 11
27 25 23 22 24 25 24 24 27 29 28 26 25 24 26 26 21 20 21 22 21 19 20 21 21 21 20 19 17 17 16 14 13 12 12 13 12 12 13 13 12 12 13 13 13 13 13 13 12 10 9 8 7 5 5 5 5 6 6 8 10 12 15 15 16 17 17 15 13 11 9 12 16 16 15 14 14 13 12 12 12 11 12 11 11
27 26 25 25 25 24 25 24 24 25 24 22 22 19 20 27 27 22 21 22 23 22 21 20 21 22 23 21 19 19 18 16 15 15 14 14 14 14 15 15 14 15 14 14 14 14 14 13 13 11 9 8 7 6 5 4 5 6 8 11 13 15 16 17 17 17 17 15 13 11 8 7 9 10 10 11 12 12 12 11 11 12 11 11 11
27 26 25 26 26 24 23 24 26 26 22 19 20 17 15 22 27 26 23 23 23 23 24 23 23 23 23 22 22 22 21 19 17 18 17 16 17 17 17 16 16 17 17 16 16 15 14 13 13 12 10 9 8 7 6 5 4 7 10 12 14 16 16 16 16 16 15 14 13 11 10 7 5 5 5 7 8 9 9 7 10 11 10 10 10
27 25 24 25 26 25 23 23 26 28 25 23 24 22 18 18 24 28 27 27 25 23 24 26 27 25 23 24 24 24 23 21 19 19 19 17 17 18 18 18 18 19 19 19 18 16 15 14 13 12 11 10 9 8 8 5 4 7 12 12 14 16 16 16 15 14 13 12 11 9 8 6 4 4 4 5 6 5 4 4 6 6 6 9 11
26 25 25 26 25 24 23 23 25 27 27 27 27 28 24 22 24 27 24 25 27 25 23 24 26 27 27 26 26 25 23 21 21 22 20 20 19 19 20 19 19 20 20 20 18 17 14 13 13 12 12 10 9 8 8 7 4 8 12 12 14 15 15 15 14 13 11 9 8 7 6 4 4 3 4 5 5 4 4 4 5 4 5 7 9
25 26 27 27 25 23 23 24 24 25 26 26 27 28 27 26 27 29 26 24 26 27 24 23 24 26 27 28 28 25 21 20 22 24 22 22 21 20 21 21 20 20 21 20 18 15 14 13 13 12 12 10 10 9 9 8 5 8 12 11 13 14 14 14 12 11 9 8 7 5 4 3 3 2 3 3 3 3 4 4 4 4 5 5 7
26 26 26 26 26 24 23 24 24 23 24 24 25 26 26 25 27 31 31 29 29 29 27 26 25 24 24 25 28 26 22 21 23 24 24 24 23 21 21 21 21 21 20 20 17 14 13 13 13 12 12 12 12 11 10 9 7 9 12 11 13 14 13 12 11 10 8 7 6 4 3 2 1 1 2 2 3 3 3 4 4 5 5 5 5
28 27 26 27 27 25 25 25 24 23 23 24 25 26 25 23 25 29 33 34 34 34 32 30 29 28 26 25 27 27 25 25 26 25 25 26 25 23 22 23 24 24 21 19 17 15 13 13 12 13 14 14 13 12 11 9 8 10 12 12 13 14 13 13 11 10 8 7 5 4 3 2 1 1 1 2 2 3 3 4 4 4 5 5 4
28 28 28 28 28 27 27 26 25 25 24 24 25 26 25 24 24 25 30 34 35 36 35 32 32 33 32 30 29 28 27 28 29 26 27 27 24 24 24 25 29 27 23 19 17 17 15 14 14 14 16 16 15 14 12 10 9 11 13 13 14 15 14 13 12 10 9 7 6 5 4 3 2 2 2 2 2 3 3 3 4 4 5 5 5
29 29 29 29 28 29 29 28 27 27 26 26 26 26 26 26 26 26 28 29 29 32 32 31 33 35 34 33 32 29 26 28 29 27 28 27 24 25 24 26 31 31 25 21 20 19 17 17 18 18 18 19 17 16 14 11 10 13 15 15 15 15 14 13 12 11 9 8 7 6 5 4 3 2 2 2 3 3 3 4 4 5 5 5 5
29 30 29 30 29 30 31 30 30 29 28 28 28 27 27 27 28 29 30 30 29 31 32 31 34 35 34 33 33 30 25 27 29 28 28 27 25 26 25 26 32 32 28 25 23 22 21 20 22 21 20 21 20 19 16 13 12 15 16 16 16 16 15 14 13 11 10 9 8 7 6 5 4 4 3 3 4 4 4 4 4 5 5 5 5
27 29 30 31 31 32 33 32 32 31 31 30 29 29 30 30 31 32 33 32 31 32 33 30 32 36 34 32 33 30 26 27 29 29 29 29 28 28 28 28 30 33 34 31 26 25 24 23 23 24 21 21 23 22 18 16 15 16 17 16 17 17 16 15 13 12 11 10 9 8 8 6 5 5 5 5 5 5 5 5 5 5 5 5 5
26 28 30 32 32 33 34 34 33 33 33 32 31 31 31 33 34 33 32 32 32 33 33 30 32 36 35 34 34 30 27 29 31 31 31 30 29 31 31 30 30 34 37 33 27 27 27 24 25 25 22 23 25 25 21 18 18 19 18 18 18 18 17 16 15 14 13 12 11 10 9 8 7 6 6 6 6 6 6 6 5 5 5 5 5
27 27 29 31 33 34 34 34 34 35 35 34 33 32 32 32 33 32 31 31 32 32 32 30 32 36 37 37 36 32 30 31 33 33 32 29 30 31 31 32 32 33 37 36 29 29 30 27 27 26 24 25 27 27 23 20 20 21 20 20 19 19 18 17 16 16 15 14 13 12 11 10 9 8 8 8 7 7 7 6 6 6 6 6 6
30 29 29 31 33 34 35 35 35 36 36 36 35 33 32 31 32 32 32 32 32 32 31 30 31 35 39 39 38 36 33 33 34 33 31 31 31 30 29 31 32 31 36 38 33 31 32 31 29 25 23 26 29 28 24 21 21 22 21 20 20 19 18 19 19 18 17 16 15 14 13 11 10 10 10 9 9 8 8 8 7 7 7 7 7
33 33 32 32 33 34 35 36 36 36 36 36 36 34 33 32 32 33 33 35 34 31 30 30 29 33 38 39 40 39 37 35 35 34 32 32 32 30 28 30 34 36 37 39 35 31 32 33 30 25 25 28 32 30 25 22 24 24 22 19 17 17 16 19 21 21 19 18 17 16 15 13 12 12 12 11 10 10 9 9 8 8 7 7 8
30 32 33 32 33 34 35 35 36 36 36 36 36 35 35 35 34 34 36 37 35 31 32 31 30 32 37 40 40 40 38 36 36 35 33 32 33 32 28 27 33 37 37 35 30 28 31 33 31 28 28 30 33 33 28 25 26 25 23 18 15 15 16 18 19 20 20 19 19 18 17 15 15 14 13 12 12 11 11 10 9 9 8 8 8
24 26 29 31 33 34 35 36 36 36 36 37 37 36 37 36 36 36 37 38 37 35 34 33 31 32 35 38 40 41 39 37 36 35 33 34 34 32 28 25 26 29 31 30 28 28 31 33 33 31 30 31 33 34 29 26 27 25 25 24 18 15 17 19 17 16 18 20 21 20 18 18 17 16 15 14 13 13 12 11 10 10 9 9 9
21 22 25 28 31 33 35 35 37 38 38 38 38 38 38 38 38 37 37 37 37 36 34 33 32 31 32 34 36 39 39 36 35 34 34 34 32 29 26 25 26 28 30 32 33 34 33 33 34 32 30 31 35 36 30 26 27 26 28 29 23 16 14 16 16 15 14 17 20 20 20 19 18 18 17 15 15 14 13 12 11 10 10 10 10
22 23 23 24 27 30 32 34 36 38 39 40 39 39 39 39 39 37 36 36 36 36 35 35 33 31 31 31 32 34 35 33 33 34 35 34 30 28 26 26 27 29 30 33 34 34 34 33 33 31 30 33 38 37 30 26 27 26 27 30 27 21 16 13 14 14 12 13 15 18 21 20 20 19 18 17 16 15 14 13 12 12 11 11 11
21 23 22 21 23 26 29 31 34 36 38 39 39 40 39 39 39 37 35 35 36 36 36 35 34 32 32 31 31 32 32 32 34 35 34 33 30 28 28 27 27 28 30 33 34 32 32 33 32 31 32 35 38 36 31 28 26 25 26 30 30 27 23 18 15 14 14 13 13 16 18 18 19 20 19 18 17 16 16 14 13 13 13 13 13
18 20 21 21 22 24 27 29 31 34 36 37 38 39 39 39 39 37 35 35 35 36 37 36 34 33 33 33 32 31 33 35 35 35 34 32 30 30 30 28 27 27 29 32 34 32 31 33 33 33 34 35 36 35 33 29 27 26 26 30 32 30 28 24 19 17 17 15 15 17 17 16 17 18 18 18 18 17 17 16 15 15 14 15 15
11 14 17 20 22 24 26 28 29 32 34 35 36 36 37 37 37 35 34 35 35 36 37 37 36 34 33 34 33 32 36 38 37 36 34 32 31 31 31 29 27 27 27 29 33 33 32 34 36 37 37 36 33 33 34 31 28 28 29 30 31 29 28 26 22 19 16 15 17 18 18 16 15 17 18 17 17 17 18 17 16 16 16 16 16
Wind_Direction
154 147 142 140 129 123 123 124 128 134 134 130 129 122 116 113 110 104 96 82 72 64 52 47 49 53 64 71 71 71 79 83 89 93 97 104 103 110 120 117 111 108 108 109 111 112 113 103 94 98 104 105 104 106 107 104 101 98 95 91 87 84 83 81 79 77 77 81 85 87 87 86 84 85 83 77 71 66 65 67 74 76 76 81 82
156 148 145 144 133 124 125 127 133 139 134 131 133 129 125 121 115 110 99 82 72 63 50 45 49 56 64 71 72 72 79 84 91 95 98 103 100 104 109 107 103 101 103 106 107 108 113 107 103 111 112 108 107 108 108 107 105 104 103 98 94 92 90 85 82 81 83 87 88 88 87 86 85 85 83 79 76 71 70 70 73 75 76 82 86
159 150 150 148 139 129 125 130 139 141 137 137 137 134 131 126 122 117 103 85 74 62 49 45 51 58 65 72 75 75 80 85 93 98 101 101 100 103 104 104 102 98 98 100 100 101 110 113 113 115 112 108 109 110 110 111 110 109 107 104 100 99 98 89 82 86 90 88 88 88 85 83 83 82 82 80 78 76 74 74 73 72 75 82 87
163 154 153 150 143 135 128 134 143 145 143 140 137 136 134 133 132 124 104 84 73 63 54 52 57 63 71 79 82 82 83 87 95 103 106 105 103 104 104 103 101 97 96 97 99 99 106 113 114 114 111 110 110 109 110 111 112 111 108 106 104 104 103 92 86 94 94 85 82 83 79 78 77 76 80 82 81 81 80 79 77 76 76 80 82
165 160 156 152 147 139 136 138 142 146 147 142 139 141 140 141 137 125 103 82 74 66 62 62 65 70 77 83 85 85 85 89 97 106 110 111 109 107 105 103 101 98 97 100 103 103 105 112 114 114 111 109 109 107 106 107 108 108 106 105 105 105 101 95 94 95 91 82 79 80 75 74 74 71 73 78 82 83 81 80 80 78 76 75 75
167 163 157 158 155 148 145 140 139 143 148 148 146 150 151 147 140 127 104 84 76 71 68 69 71 76 81 82 82 82 83 87 95 106 111 112 111 109 107 104 102 100 99 101 102 101 106 116 117 116 114 112 109 106 104 104 104 103 104 105 105 104 101 101 93 85 81 75 71 73 71 75 77 71 69 73 78 79 77 76 76 74 72 71 72
168 164 161 164 163 158 153 143 139 140 144 150 153 159 159 152 140 128 109 89 81 75 73 72 74 79 82 83 81 81 82 85 92 103 109 111 111 107 105 104 102 101 102 106 107 107 111 118 119 118 116 114 109 106 104 102 103 103 105 105 105 105 106 103 93 87 82 74 69 70 69 74 78 74 71 73 75 75 76 76 75 74 72 72 73
169 169 169 167 166 167 158 149 142 141 145 149 153 158 158 155 140 128 114 94 84 80 76 73 74 78 81 83 83 84 84 88 93 101 107 109 110 106 103 102 101 101 105 110 111 115 116 115 117 118 116 112 108 104 102 101 102 103 105 105 107 106 102 93 86 88 85 77 72 73 71 71 74 73 71 76 79 78 79 78 76 76 73 73 74
170 169 173 173 170 170 161 153 150 147 149 150 152 154 155 154 144 134 119 97 87 83 78 74 76 78 79 80 80 84 87 90 95 101 107 110 110 107 103 102 101 102 105 106 105 108 108 107 110 112 112 110 105 103 100 99 99 99 102 105 108 102 91 80 73 74 76 76 77 76 75 71 71 72 70 73 74 73 77 77 75 74 73 72 72
169 169 174 180 175 171 164 157 158 155 154 157 154 152 152 150 149 144 123 100 91 89 84 78 79 80 79 78 76 80 86 90 95 102 109 111 110 107 104 103 102 103 106 104 104 105 104 106 110 109 107 106 102 100 99 97 97 97 100 105 106 96 89 84 78 73 68 69 72 70 68 67 67 68 66 65 61 61 66 68 68 69 69 68 67
170 170 175 184 178 173 169 164 164 162 161 163 156 149 144 146 152 147 124 106 98 98 93 85 84 84 81 78 75 78 85 90 94 101 110 111 108 106 105 104 102 107 110 106 105 106 106 109 112 109 105 103 101 99 98 96 95 95 97 99 98 91 88 86 83 80 73 69 69 66 65 65 67 67 64 60 58 59 61 61 63 64 63 61 61
173 171 179 186 179 178 176 172 171 167 166 167 159 150 140 145 153 148 129 116 110 108 105 96 90 90 86 80 76 80 86 90 94 98 104 107 107 107 107 104 105 116 117 112 113 111 109 110 108 105 103 101 100 98 96 94 92 91 90 90 90 89 88 84 84 86 83 79 78 77 75 72 71 71 68 63 61 62 63 63 65 67 65 62 61
176 175 185 187 183 185 182 177 176 174 172 171 166 155 143 148 155 151 138 125 123 121 116 105 97 94 88 83 79 83 87 90 93 96 99 102 106 108 110 109 111 120 118 114 117 117 117 116 108 103 102 100 99 96 94 92 89 87 86 87 88 90 90 88 89 91 90 88 84 81 79 77 75 74 73 70 67 66 67 70 71 71 70 69 68
180 182 187 189 190 189 185 181 179 181 179 178 174 165 151 153 157 153 145 134 133 131 124 113 103 96 90 86 83 85 88 90 92 95 99 101 103 105 110 113 114 116 116 118 118 117 117 113 108 105 103 100 97 94 92 90 89 87 84 86 87 87 88 88 93 94 92 91 88 84 81 80 80 79 78 75 72 70 71 74 72 69 68 69 69
185 188 191 193 195 191 187 185 185 186 184 185 180 172 163 160 162 159 152 143 141 140 134 123 111 99 93 92 89 90 89 89 91 93 96 99 101 101 104 105 104 104 107 114 115 113 112 108 107 105 102 99 96 94 92 90 89 88 83 83 88 92 92 89 95 98 94 93 91 89 87 85 84 83 82 78 76 75 73 74 72 68 65 64 64
189 193 195 197 199 195 191 190 192 191 187 189 185 179 174 168 167 166 161 153 148 150 149 135 123 106 94 94 95 96 94 91 87 89 92 93 96 98 99 98 98 100 102 106 106 106 106 107 106 104 101 99 97 95 93 91 89 87 83 83 88 96 99 93 101 105 100 102 101 97 96 93 91 89 86 82 79 78 75 73 70 67 64 61 57
193 196 198 202 202 200 196 195 198 196 194 194 189 183 183 180 175 172 170 163 155 159 162 148 137 119 92 94 99 101 100 94 87 85 87 89 90 93 97 100 103 105 107 106 105 104 104 105 104 103 102 99 98 95 92 89 87 85 82 84 87 92 97 96 100 99 92 102 109 106 103 102 99 97 93 88 86 84 79 74 68 62 57 50 44
195 198 200 205 204 203 200 201 202 200 201 199 194 188 190 191 186 180 178 174 164 166 173 164 154 133 98 94 97 103 104 96 88 83 84 87 88 92 96 99 104 106 107 107 107 107 106 105 103 102 102 100 98 94 91 88 86 85 84 86 89 93 94 90 89 86 81 87 97 98 100 108 109 107 107 101 97 93 85 79 74 63 49 39 45
194 197 200 205 204 205 205 208 206 205 206 205 201 193 196 198 194 189 184 183 178 179 186 186 180 158 133 117 103 107 110 103 93 87 86 90 92 97 100 101 103 104 106 107 108 108 107 105 103 103 102 101 99 95 92 89 88 87 88 91 90 91 90 87 87 87 86 82 84 87 87 100 110 108 108 109 113 109 99 86 77 68 56 50 52
196 197 198 205 205 205 208 211 209 209 210 210 207 201 201 203 201 198 193 190 189 191 196 198 192 182 178 169 133 124 123 119 109 99 96 99 105 109 109 109 108 108 109 109 110 110 109 107 106 106 105 102 99 95 92 90 90 89 94 97 94 93 90 91 94 92 91 89 89 89 83 85 89 90 90 91 96 96 92 82 76 82 78 62 50
199 198 198 201 204 205 208 211 212 212 212 212 211 206 203 205 208 205 198 196 196 198 201 204 200 195 196 202 192 168 151 140 131 120 115 115 118 122 122 120 118 118 118 117 117 116 115 114 114 113 109 106 101 97 93 91 90 93 98 98 94 93 93 96 97 95 94 93 95 94 88 84 82 84 87 87 87 86 87 86 80 84 84 58 45
200 201 200 201 204 204 205 210 213 212 213 215 214 210 207 208 212 209 203 202 204 205 205 207 205 202 202 209 208 200 194 167 158 149 136 133 130 133 135 133 129 128 128 126 124 123 122 120 117 114 111 110 105 100 96 93 92 94 98 95 90 92 99 103 103 101 98 95 95 95 90 83 81 83 87 88 90 89 88 87 80 75 72 61 57
204 203 202 203 205 205 204 207 210 211 211 215 217 217 213 212 214 211 207 207 208 210 209 208 208 206 203 204 200 201 209 186 174 172 160 153 144 143 144 141 135 132 135 134 131 129 126 123 119 116 116 114 108 102 98 97 98 99 98 93 91 96 103 106 108 108 106 102 99 99 96 88 85 84 85 88 90 90 87 78 72 76 74 64 58
206 207 207 207 209 207 205 206 206 207 208 210 216 220 218 218 217 214 212 211 210 213 213 209 208 208 204 202 200 203 218 202 181 184 183 176 164 157 158 152 143 141 145 144 139 135 131 127 125 124 123 118 111 105 100 99 102 105 102 94 93 101 106 108 111 114 116 115 109 107 103 95 89 86 88 88 85 87 88 76 70 74 70 56 50
207 212 213 214 216 213 210 212 210 209 210 207 208 216 220 219 220 220 219 216 213 215 217 213 210 209 206 205 207 211 226 219 188 192 198 193 184 176 176 169 158 155 155 155 148 141 140 136 133 133 129 123 115 108 104 103 104 106 105 101 99 103 110 114 117 121 124 122 117 113 106 100 97 94 94 89 80 78 79 78 73 67 60 54 52
214 218 217 219 220 218 216 217 217 217 217 212 207 211 217 217 221 223 220 218 217 217 220 220 216 211 210 209 211 216 229 233 206 200 207 204 198 192 192 186 173 166 163 163 156 149 148 144 141 139 135 129 119 110 105 104 103 103 105 107 111 113 117 122 123 126 130 128 125 122 117 112 108 103 99 95 90 83 77 71 63 62 60 53 52
223 222 219 221 220 220 221 220 220 221 222 221 216 214 214 214 220 223 220 222 221 218 220 221 220 216 215 214 215 220 227 234 222 208 209 207 204 203 204 202 191 178 170 168 161 156 154 150 148 145 140 134 122 112 105 103 101 106 112 113 121 128 129 131 130 131 135 136 135 130 124 116 109 102 99 98 95 89 82 70 63 69 66 51 48
227 226 223 225 222 220 222 223 222 222 223 224 223 220 217 214 218 222 221 226 227 223 222 222 223 219 215 216 220 224 225 231 226 211 206 204 203 205 205 208 208 193 178 174 168 162 160 157 156 155 150 141 129 117 107 105 105 110 120 126 132 135 134 135 135 135 138 143 142 133 124 117 110 99 93 89 83 82 82 79 75 72 64 49 41
230 231 228 227 226 221 218 222 222 220 222 224 225 224 220 215 215 220 221 227 229 226 226 224 224 221 218 219 222 224 225 228 227 218 208 200 201 206 208 209 211 204 187 178 176 169 165 165 166 166 162 153 142 130 115 106 107 116 129 134 135 135 135 135 137 137 139 145 145 136 127 121 117 109 99 90 84 83 81 80 75 69 62 52 38
235 234 231 228 230 227 222 222 221 220 220 223 224 221 220 217 214 216 220 226 228 227 228 227 227 226 226 225 223 225 229 228 229 231 221 207 209 214 213 211 209 207 194 182 181 176 173 174 173 173 173 167 156 143 130 113 107 127 138 138 139 138 137 137 139 139 140 144 145 141 135 124 118 114 106 94 86 83 82 81 75 72 63 55 40
237 236 233 232 233 233 229 223 221 222 220 219 223 221 221 223 217 215 218 223 226 227 228 232 233 232 231 231 228 227 230 229 229 236 232 217 218 221 217 214 209 204 197 189 186 183 182 182 181 180 184 182 169 151 139 127 118 140 147 144 144 142 139 140 140 140 142 143 145 144 138 135 122 104 94 83 80 79 82 78 71 73 64 57 48
236 237 235 234 235 234 232 225 222 224 225 224 227 227 226 230 221 215 221 224 223 225 229 235 236 233 233 237 237 234 233 230 227 233 235 226 224 225 220 216 212 204 198 196 192 188 189 190 189 185 188 192 179 159 149 142 137 154 156 150 149 147 143 143 143 143 145 144 144 142 138 135 118 86 60 54 63 67 63 40 45 59 55 58 60
237 238 237 236 237 236 234 229 224 225 227 227 229 231 230 234 224 211 218 224 220 224 232 237 235 232 234 238 238 235 237 234 226 229 234 232 232 230 221 217 214 207 201 201 198 194 193 194 193 189 190 197 187 169 158 152 152 166 165 157 154 151 148 149 148 148 147 146 145 141 136 123 98 69 45 40 45 42 30 21 22 23 31 51 63
240 239 238 238 238 237 237 234 229 227 228 228 229 232 231 232 224 210 212 218 219 225 229 230 231 230 232 237 235 229 236 236 226 227 231 232 235 233 225 222 219 212 203 200 200 197 195 194 200 203 199 199 192 182 170 161 160 173 174 168 161 157 155 156 154 154 153 153 152 144 136 118 96 69 44 31 27 20 13 13 10 11 19 37 53
243 240 239 239 239 237 237 238 236 233 232 230 230 234 230 227 222 215 215 217 219 223 223 222 224 227 231 235 231 227 235 237 225 224 228 231 237 237 232 231 228 219 208 201 199 198 198 200 209 216 208 202 199 195 184 172 170 179 182 179 169 164 163 164 163 163 163 163 158 151 142 126 102 53 14 4 7 4 4 4 359 0 2 12 33
244 242 240 239 239 237 236 238 238 237 235 233 232 235 234 228 224 221 220 222 223 226 228 226 223 227 232 231 228 231 239 237 227 226 229 231 237 240 237 237 234 225 212 205 205 204 207 212 216 222 219 212 208 205 195 184 181 181 188 188 176 174 174 173 175 175 176 175 170 170 170 173 213 299 323 333 348 348 353 350 346 348 347 355 2
244 243 241 239 239 237 235 235 236 236 236 234 231 233 235 233 229 228 228 229 229 231 233 229 225 227 231 231 229 233 236 232 229 232 233 233 238 242 238 237 235 225 213 211 215 213 217 222 220 225 229 223 216 212 206 195 191 184 189 196 186 183 184 181 183 185 187 188 186 192 199 211 239 266 293 316 324 327 335 332 333 337 338 345 342
243 242 241 240 239 238 236 233 234 235 235 235 232 231 233 234 234 235 238 238 236 238 238 231 227 228 230 234 232 229 229 227 231 236 234 232 238 243 239 238 235 225 216 217 219 218 221 222 219 222 228 228 220 214 214 208 202 192 190 199 197 191 190 189 193 195 197 199 201 209 217 228 246 266 281 291 299 305 312 313 317 321 325 330 331
244 240 240 239 238 238 238 234 233 234 235 236 235 233 232 233 234 237 241 242 241 244 245 235 230 227 227 234 231 225 227 229 235 237 233 233 236 237 236 238 236 227 220 219 218 218 218 217 217 220 223 227 221 212 216 218 212 202 195 200 202 198 197 198 200 204 207 211 214 220 227 238 248 259 269 272 279 287 291 295 299 303 311 318 322
246 241 239 239 237 237 238 236 234 234 235 235 236 235 234 234 235 237 240 242 242 243 246 240 231 224 223 229 226 223 228 232 237 238 233 235 238 240 240 239 237 231 224 220 220 223 220 218 220 220 221 227 222 211 215 222 217 206 199 203 206 202 203 206 208 211 216 220 223 228 233 240 248 253 258 262 266 272 275 279 284 290 298 308 317
248 243 239 238 237 237 239 239 237 236 237 237 237 237 238 238 239 240 242 244 244 244 246 241 231 223 220 223 223 224 229 232 237 237 233 234 239 243 242 238 236 234 229 222 224 228 221 220 222 219 223 232 224 211 214 221 216 207 201 203 207 206 208 211 215 219 222 227 230 233 237 241 247 249 251 254 256 260 264 268 274 280 288 302 314
251 247 242 239 238 237 239 240 240 239 240 240 240 240 242 244 245 246 247 248 248 249 248 241 232 225 219 218 222 227 231 233 234 233 232 233 237 241 239 235 233 233 230 224 227 230 221 219 220 219 224 230 223 214 215 220 217 214 208 203 204 208 214 218 220 224 227 230 234 236 239 241 244 246 247 248 250 253 258 262 266 275 284 297 310
253 250 246 240 239 238 239 240 240 241 242 243 244 244 246 247 248 248 249 250 249 250 249 242 234 227 221 219 224 231 233 232 229 226 229 232 236 239 237 234 232 232 229 226 227 230 224 220 219 226 232 226 218 216 219 222 221 217 208 204 207 209 216 223 225 227 230 232 234 236 238 240 242 243 243 244 247 249 252 258 262 271 283 294 307
253 250 247 243 241 240 240 241 241 243 243 245 247 247 248 248 248 247 246 247 248 249 248 242 233 226 223 221 226 231 230 229 228 226 229 234 237 238 235 236 235 231 228 225 224 226 227 224 222 233 242 230 218 217 218 220 223 217 205 201 209 211 219 229 229 229 232 233 234 236 237 238 239 240 241 242 245 247 249 255 261 268 280 289 299
253 251 248 246 244 242 241 241 242 244 244 246 248 248 248 248 247 245 243 244 246 245 242 240 232 225 223 222 224 227 226 227 230 229 231 235 238 237 235 238 236 230 226 224 225 228 230 230 231 239 246 239 226 220 217 218 224 220 208 203 204 207 221 232 230 230 234 234 235 237 237 238 238 239 241 242 242 246 248 252 259 266 276 285 293
257 253 248 245 244 243 242 242 242 243 244 245 247 247 248 249 249 247 244 244 244 242 240 239 234 228 225 224 224 225 226 229 232 232 233 234 234 232 231 234 237 235 232 234 241 243 239 235 235 239 244 242 230 223 222 223 227 221 213 215 216 214 221 226 225 224 228 233 237 238 237 237 239 240 242 242 243 246 248 252 257 264 272 281 289
259 253 248 244 241 242 242 241 242 243 244 244 246 246 247 249 249 249 248 246 247 246 244 241 237 234 231 228 227 227 228 231 232 231 229 227 226 226 228 233 241 245 244 246 251 251 246 239 235 236 240 238 226 223 227 233 234 226 216 218 222 224 225 225 225 222 222 233 241 240 238 240 240 242 243 244 246 247 249 253 257 264 271 278 284
250 247 246 244 241 241 241 241 242 243 244 245 246 247 247 248 250 250 249 247 246 247 245 241 237 235 231 229 227 225 226 228 226 222 219 221 225 228 231 235 242 248 251 252 253 252 246 236 233 233 237 234 224 222 231 239 238 234 224 219 220 225 230 232 230 230 235 243 245 241 242 244 243 244 247 247 249 249 251 254 258 264 270 275 280
241 240 241 242 240 240 241 242 243 244 245 246 247 248 248 249 251 251 250 248 245 244 243 241 237 233 228 225 224 223 223 221 217 215 217 223 230 233 233 235 240 246 252 253 251 250 241 231 230 232 232 229 223 222 233 242 241 241 235 225 221 225 232 237 234 231 238 248 253 253 252 249 245 247 251 251 252 252 253 256 259 264 269 274 278
240 240 239 239 238 237 239 240 242 245 246 247 247 249 249 250 251 252 251 249 245 242 242 239 235 232 228 224 224 222 219 218 216 218 222 228 233 235 234 234 238 246 252 252 247 244 237 230 230 232 230 227 225 227 234 239 241 244 243 233 226 227 232 238 240 239 242 250 258 264 266 259 250 252 254 253 254 255 256 259 260 264 268 273 277
244 245 243 242 241 239 239 239 240 243 246 247 248 248 250 251 252 252 251 249 245 242 242 239 234 232 227 224 226 223 217 218 220 222 227 234 235 236 236 236 240 245 249 248 244 242 236 231 230 228 223 223 228 232 233 236 239 241 244 239 231 232 237 241 246 250 253 258 261 264 270 266 253 252 255 255 254 255 258 260 262 265 269 272 276